SCP
0 0 0 0 0 0 0 0 0 0 0 0 0 0 0 0 0 0 0 0 0 0 0 0 0 0 0 0 0 0 0 0 0 0 0 0 0 0 0 0 0 0 0
0 0 0 0 0 0 0 0 0 0 0 0 0 0 0 0 0 0 0 0 0 0 0 0 0 0 0 0 0 0 0 0 0 0 0 0 0 0 0 0 0 0 0
-0 0 0 0 0 0 0 0 0 0 0 0 0 0 0 0 0 0 0 0 0 0 0 0 0 0 0 0 0 0 0 0 0 0 0 0 0 0 0 0 0 0 0
0 0 0 0 0 0 0 0 0 0 0 0 0 0 0 0 0 0 0 0 0 0 0 0 0 0 0 0 0 0 0 0 0 0 0 0 0 0 0 0 0 0 0
0 0 0 0 0 0 0 0 0 0 0 0 0 0 0 0 0 0 0 0 0 0 0 0 0 0 0 0 0 0 0 0 0 0 0 0 0 0 0 0 0 0 0
0 0 0 0 0 0 0 0 0 0 0 0 0 0 0 0 0 0 0 0 0 0 0 0 0 0 0 0 0 0 0 0 0 0 0 0 0 0 0 0 0 0 0
0 0 0 0 0 0 0 0 0 0 0 0 0 0 0 0 0 0 0 0 0 0 0 0 0 0 0 0 0 0 0 0 0 0 0 0 0 0 0 0 0 0 0
0 0 0 0 0 0 0 0 0 0 0 0 0 0 0 0 0 0 0 0 0 0 0 0 0 0 0 0 0 0 0 0 0 0 0 0 0 0 0 0 0 0 0
0 0 0 0 0 0 0 0 0 0 0 0 0 0 0 0 0 0 0 0 0 0 0 0 0 0 0 0 0 0 0 0 0 0 0 0 0 0 0 0 0 0 0
0 0 0 0 0 0 0 0 0 0 0 0 0 0 0 0 0 0 0 0 0 0 0 0 0 0 0 0 0 0 0 0 0 0 0 0 0 0 0 0 0 0 0
0 0 0 0 0 0 0 0 0 0 0 0 0 0 0 0 0 0 0 0 0 0 0 0 0 0 0 0 0 0 0 0 0 0 0 0 0 0 0 0 0 0 0
0 0 0 0 0 0 0 0 0 0 0 0 0 0 0 0 0 0 0 0 0 0 0 0 0 0 0 0 0 0 0 0 0 0 0 0 0 0 0 0 0 0 0
0 0 0 0 0 0 0 0 0 0 0 0 0 0 0 0 0 0 0 0 0 0 0 0 0 0 0 0 0 0 0 0 0 0 0 0 0 0 0 0 0 0 0
0 0 0 0 0 0 0 0 0 0 0 0 0 0 0 0 0 0 0 0 0 0 0 0 0 0 0 0 0 0 0 0 0 0 0 0 0 0 0 0 0 0 0
0 0 0 0 0 0 0 0 0 0 0 0 0 0 0 0 0 0 0 0 0 0 0 0 0 0 0 0 0 0 0 0 0 0 0 0 0 0 0 0 0 0 0
0 0 0 0 0 0 0 0 0 0 0 0 0 0 0 0 0 0 0 0 0 0 0 0 0 0 0 0 0 0 0 0 0 0 0 0 0 0 0 0 0 0 0
0 0 0 0 0 0 0 0 0 0 0 0 0 0 0 0 0 0 0 0 0 0 0 0 0 0 0 0 0 0 0 0 0 0 0 0 0 0 0 0 0 0 0
0 0 0 0 0 0 0 0 0 0 0 0 0 0 0 0 0 0 0 0 0 0 0 0 0 0 0 0 0 0 0 0 0 0 0 0 0 0 0 0 0 0 0
0 0 0 0 0 0 0 0 0 0 0 0 0 0 0 0 0 0 0 0 0 0 0 0 0 0 0 0 0 0 0 0 0 0 0 0 0 0 0 0 0 0 0
0 0 0 0 0 0 0 0 0 0 0 0 0 0 0 0 0 0 0 0 0 0 0 0 0 0 0 0 0 0 0 0 0 0 0 0 0 0 0 0 0 0 0
0 0 0 0 0 0 0 0 0 0 0 0 0 0 0 0 0 0 0 0 0 0 0 0 0 0 0 0 0 0 0 0 0 0 0 0 0 0 0 0 0 0 0
0 0 0 0 0 0 -0 -0 0 0 -0 0 0 0 0 0 0 0 0 0 0 0 0 0 0 0 0 0 0 0 0 0 0 0 0 0 0 0 0 0 0 0 0
0 0 0 0 0 -0 -0 -0 0 0 -0 0 0 0 0 0 0 0 0 0 0 0 0 0 0 0 0 0 0 0 0 0 0 0 0 0 0 0 0 0 0 0 0
0 0 0 0 0 0 -0 0 0 0 -0 0 0 0 0 0 0 0 0 0 0 0 0 0 0 0 0 0 0 0 0 0 0 0 0 0 0 0 0 0 0 0 0
0 0 0 0 0 0 0 0 0 0 0 0 0 0 0 0 0 0 0 0 0 0 0 0 0 0 0 0 0 0 0 0 0 0 0 0 0 0 0 0 0 0 0
0 0 0 0 0 0 0 0 0 0 0 -0 0 0 0 0 0 0 0 0 0 0 0 0 0 0 0 0 0 0 0 0 0 0 0 0 0 0 0 0 0 0 0
Wind_Speed
2 1 2 2 2 1 1 2 2 3 3 4 3 4 4 3 2 4 3 6 6 5 4 4 3 4 3 3 2 2 2 3 2 1 0 1 1 2 3 4 4 5 5
2 2 2 2 2 2 2 2 2 2 2 2 2 3 3 3 2 3 3 4 5 5 5 4 4 3 3 2 2 2 2 1 1 1 1 1 1 2 3 4 5 6 6
3 3 3 2 2 2 3 3 3 2 2 1 1 1 1 2 2 2 2 3 3 4 4 4 3 3 3 2 2 2 1 1 1 1 1 2 2 4 5 5 6 7 7
4 4 3 2 3 3 3 2 3 3 3 2 2 1 1 1 1 1 1 2 2 3 3 4 4 3 3 3 2 2 1 1 1 1 2 2 3 5 5 6 6 6 7
4 3 2 2 3 3 3 3 3 2 2 2 1 1 1 1 1 2 2 2 2 2 3 4 4 3 3 2 2 1 1 1 1 2 2 3 3 3 4 6 6 6 7
5 4 2 4 4 3 3 3 3 2 2 2 2 2 1 1 2 2 2 2 2 2 2 3 3 2 2 2 2 1 1 1 1 2 3 3 2 2 4 5 6 7 8
5 4 3 3 3 3 3 4 3 3 2 2 2 2 2 2 2 1 2 2 2 2 1 2 1 1 1 2 2 2 2 2 2 2 3 3 1 2 3 4 5 6 7
4 4 3 3 3 3 4 3 3 3 3 2 2 2 2 3 3 2 1 1 2 1 1 2 2 2 1 1 1 3 3 3 3 3 3 2 1 2 2 3 4 5 6
4 4 4 3 3 3 2 3 3 3 3 3 3 2 2 1 2 3 3 2 2 2 2 2 2 2 2 2 2 3 5 5 4 3 3 3 1 1 2 2 3 5 5
3 3 3 3 3 3 3 3 4 3 3 3 3 3 2 1 1 2 3 2 2 3 2 3 3 3 3 2 3 5 5 6 6 4 4 4 2 2 2 2 3 4 5
2 3 3 3 3 2 2 3 3 3 2 2 2 2 2 2 2 2 1 3 2 2 2 2 2 2 3 3 2 4 5 6 6 5 5 5 3 2 2 2 3 3 3
1 2 2 2 3 3 3 2 2 3 2 3 2 2 2 2 2 2 1 1 1 1 2 2 2 2 2 2 4 5 5 5 6 7 6 6 5 3 2 1 2 3 3
1 2 2 2 2 3 3 3 3 2 2 3 3 2 2 2 1 1 1 1 1 1 2 2 2 2 2 2 2 3 3 3 4 5 6 6 6 5 3 1 0 1 2
2 1 2 3 3 3 3 4 3 3 3 3 4 3 2 2 2 2 1 1 2 2 2 2 2 2 2 2 2 2 1 2 3 4 4 5 6 6 4 3 2 1 2
2 2 3 3 3 4 4 4 3 3 3 4 3 4 3 2 3 2 2 1 1 1 2 2 2 2 2 2 2 1 1 2 2 2 3 3 4 4 4 4 3 3 3
3 3 3 4 4 3 4 4 3 3 4 3 2 3 3 3 3 3 2 2 1 1 1 2 2 2 3 3 4 3 2 2 1 2 1 2 2 3 3 3 3 2 2
2 3 3 4 3 3 3 3 3 4 4 4 4 4 4 4 3 3 3 3 2 2 1 2 2 2 3 3 4 3 2 1 0 1 1 1 1 1 1 2 2 1 1
3 3 4 4 4 4 4 3 4 4 4 4 4 5 5 4 5 4 3 3 3 2 1 2 3 3 3 3 3 4 4 3 1 1 1 1 1 2 2 2 2 1 1
3 3 4 4 4 4 4 4 3 3 4 4 4 5 5 5 5 4 4 4 3 3 2 2 2 2 2 3 3 4 5 4 3 1 1 1 2 2 3 3 3 3 2
3 4 4 5 4 5 5 5 4 4 4 4 4 5 5 5 5 5 4 4 4 4 3 2 2 2 2 3 3 3 4 4 4 3 2 2 2 3 3 3 3 3 3
4 4 5 5 5 5 6 6 4 4 4 3 4 4 5 6 7 5 4 4 4 3 3 3 2 3 3 3 3 3 3 3 3 2 2 2 2 2 3 4 4 4 5
4 4 5 5 5 5 7 9 7 4 3 3 3 3 3 4 5 6 6 6 4 3 3 3 2 3 3 3 3 3 3 3 3 3 3 4 2 2 3 2 4 5 6
4 4 4 4 4 4 7 8 9 4 3 3 3 3 4 5 5 4 5 5 4 4 3 2 2 3 3 3 3 4 4 3 4 4 3 4 3 3 3 4 5 5 7
3 3 3 4 4 3 5 6 7 3 2 2 3 3 3 4 6 6 4 4 4 3 3 2 2 3 3 3 3 3 4 5 4 4 2 3 3 3 4 3 6 7 7
3 3 3 3 3 2 3 4 5 2 2 2 2 3 3 3 6 9 5 5 5 5 5 5 6 6 7 7 5 3 3 3 4 4 2 2 3 4 4 4 5 7 8
3 3 2 3 3 3 2 2 3 1 2 2 2 2 4 4 5 6 3 4 5 5 6 6 6 6 5 5 6 2 1 2 3 4 3 2 3 4 4 3 3 3 5
Wind_Direction
32 11 54 25 20 16 21 5 20 23 13 18 17 24 21 35 74 101 113 118 111 104 93 85 87 90 83 72 78 81 79 75 72 70 103 220 230 216 208 202 201 190 186
40 23 48 37 10 4 11 22 30 30 30 28 24 28 14 11 42 101 127 127 126 119 109 102 98 90 83 72 76 79 78 73 56 27 334 261 241 234 226 215 210 200 193
37 38 35 28 6 8 25 24 20 15 20 39 38 51 39 12 28 81 126 144 144 135 128 117 109 108 94 89 79 70 56 36 28 353 294 278 256 248 230 217 212 202 197
46 42 27 11 17 23 23 30 25 11 16 18 17 13 57 30 29 38 90 132 146 142 146 139 128 123 112 96 87 68 42 10 354 324 296 278 255 241 226 215 207 199 197
44 51 24 13 32 29 15 23 37 23 7 354 344 34 33 40 27 28 44 65 89 120 138 152 145 130 115 101 87 62 5 0 324 318 310 294 265 240 217 212 207 202 196
37 38 31 28 35 30 17 25 24 23 1 345 1 37 4 72 65 21 25 51 57 83 106 134 147 147 137 106 69 32 349 326 310 316 317 310 267 231 197 204 210 207 199
31 32 31 37 41 40 30 31 20 8 357 6 17 1 7 41 61 56 37 44 48 47 57 97 124 130 131 108 58 19 4 343 324 327 335 335 276 205 186 194 206 208 201
29 26 32 38 50 48 34 28 29 10 358 20 32 14 14 14 3 36 48 67 62 24 35 68 74 78 80 102 81 34 19 5 349 338 341 349 10 153 170 192 208 203 197
39 27 28 34 38 51 38 32 37 32 1 1 29 50 65 24 338 352 13 49 57 39 31 34 54 58 59 67 74 50 39 20 360 349 345 351 22 101 143 162 171 180 173
49 31 28 29 36 51 43 26 38 23 27 10 3 18 50 102 93 352 348 10 44 53 41 42 42 42 47 56 67 58 43 19 8 11 9 1 16 55 101 131 151 155 161
62 51 29 29 34 52 63 52 44 36 28 28 14 8 10 13 27 76 348 346 9 30 48 58 56 46 40 49 61 54 46 26 28 27 21 13 24 43 78 104 125 146 165
65 60 46 41 34 33 41 44 53 56 38 25 22 28 33 31 17 38 28 356 357 349 31 56 59 50 48 50 50 59 48 32 32 31 26 16 12 20 48 109 138 142 148
77 58 51 55 42 28 35 29 36 39 49 43 38 28 26 25 27 41 43 351 344 321 32 32 49 48 39 54 53 43 48 41 36 32 28 23 20 22 30 44 122 153 146
102 84 70 66 50 31 38 30 22 26 36 36 33 30 22 19 27 43 50 34 5 353 20 16 18 38 30 39 40 30 50 58 53 43 33 26 24 25 29 37 37 54 74
87 82 80 76 60 41 39 33 33 23 32 39 25 22 18 14 21 25 31 58 74 20 348 356 4 1 15 34 28 357 33 105 102 77 55 35 24 24 25 24 26 49 58
70 73 71 73 63 53 47 37 33 24 34 37 29 32 26 16 13 12 17 13 37 94 344 329 342 352 10 15 17 4 2 61 100 117 87 40 19 21 26 22 25 34 51
90 89 72 73 66 57 53 48 38 36 33 27 27 39 32 26 17 10 10 12 18 42 38 323 336 352 14 8 355 348 350 1 57 150 134 40 9 350 346 345 351 10 17
74 85 83 74 64 55 51 47 43 42 40 33 27 36 32 27 19 9 16 18 12 13 37 343 335 352 0 356 358 349 353 7 6 96 87 9 318 311 298 289 289 284 277
82 77 79 75 65 56 46 39 44 46 46 42 40 43 37 30 19 12 15 14 4 4 14 12 339 345 349 356 3 353 353 349 347 40 11 334 311 299 285 277 266 261 259
81 75 72 70 65 59 43 28 27 43 45 45 56 60 51 43 31 13 13 8 5 5 0 4 348 341 344 354 17 357 346 339 335 347 355 332 309 304 292 276 265 258 259
77 80 76 69 59 57 39 29 15 28 38 42 55 71 70 61 46 32 21 6 5 6 1 358 349 350 353 4 358 341 340 325 320 335 344 325 314 297 287 274 265 260 257
75 82 85 80 64 54 44 35 19 14 19 35 38 54 81 62 41 28 12 6 10 17 2 356 346 350 340 342 342 338 334 342 322 319 338 313 317 300 282 261 265 262 258
89 86 88 90 83 61 45 28 11 5 15 23 32 34 32 43 34 7 353 346 344 336 337 338 343 335 329 334 343 332 326 318 293 291 319 304 310 308 298 296 283 276 266
112 109 107 106 99 71 46 23 1 1 14 21 37 37 46 41 19 11 357 354 344 336 313 328 321 307 308 305 303 297 294 301 298 306 324 301 303 299 303 299 273 273 272
123 125 126 120 114 97 54 27 7 356 8 12 39 45 48 54 22 15 9 348 338 334 332 332 318 305 303 310 309 325 325 328 315 306 320 315 311 311 300 290 287 280 281
139 144 140 136 135 134 120 56 23 356 352 350 16 44 39 37 17 9 1 341 330 323 329 325 314 308 302 301 304 289 298 311 308 305 315 328 312 322 309 294 304 305 291